Weather History for El Centro, CA

Change the Weather History Date:

Monday, April 7, 2014

  Actual Average Record
Temperature  
Mean Temperature 73 °F -  
Max Temperature 91 °F 77 °F 91 °F (2005)
Min Temperature 55 °F 54 °F 46 °F (2012)
Cooling Degree Days 8    
Growing Degree Days 23 (Base 50)    
Moisture  
Dew Point 28 °F    
Average Humidity 20    
Maximum Humidity 33    
Minimum Humidity 10    
Precipitation  
Precipitation 0.00 in - - ()
Sea Level Pressure  
Sea Level Pressure 30.08 in    
Wind  
Wind Speed 7 mph (WSW)    
Max Wind Speed 12 mph    
Max Gust Speed -    
Visibility 10 miles    
Events      
Averages and records for this station are not official NWS values.
T = Trace of Precipitation, MM = Missing Value Source: NWS Daily Summary

Daily Weather History Graph

Daily Weather History Graph

Search for Another Location

Airport:

Trip Planner

Search our weather history database for the weather conditions in past years. The results will help you decide how hot, cold, wet, or windy it might be!

Date:

Astronomy

Apr. 07, 2014 Rise Set
Actual Time 6:22 AM PDT 7:07 PM PDT
Civil Twilight 5:57 AM PDT 7:32 PM PDT
Nautical Twilight 5:28 AM PDT 8:01 PM PDT
Astronomical Twilight 4:58 AM PDT 8:31 PM PDT
Moon 12:30 PM PDT (4/7) 1:38 AM PDT (4/7)
Length of Visible Light 13h 34m
Length of Day
12h 44m
First Quarter, 54% of the Moon is Illuminated
Apr 7
First Quarter
Apr 15
Full
Apr 22
Last Quarter
Apr 28
New
May 6
First Quarter

Hourly Weather History & Observations

Time (PDT) Temp. Dew Point Humidity Pressure Visibility Wind Dir Wind Speed Gust Speed Precip Events Conditions
12:56 AM 60.1 °F 25.0 °F 26% 30.04 in 10.0 mi West 11.5 mph - N/A   Clear
1:56 AM 61.0 °F 28.9 °F 30% 30.04 in 10.0 mi WSW 8.1 mph - N/A   Clear
2:56 AM 57.9 °F 28.0 °F 32% 30.03 in 10.0 mi West 9.2 mph - N/A   Clear
3:56 AM 61.0 °F 28.0 °F 29% 30.02 in 10.0 mi West 6.9 mph - N/A   Clear
4:56 AM 55.9 °F 27.0 °F 33% 30.04 in 10.0 mi West 6.9 mph - N/A   Clear
5:56 AM 60.1 °F 28.0 °F 30% 30.06 in 10.0 mi WSW 4.6 mph - N/A   Clear
6:56 AM 57.0 °F 28.0 °F 33% 30.09 in 10.0 mi WSW 5.8 mph - N/A   Clear
7:56 AM 64.0 °F 30.9 °F 29% 30.12 in 10.0 mi WSW 4.6 mph - N/A   Clear
8:56 AM 73.0 °F 30.0 °F 20% 30.14 in 10.0 mi West 6.9 mph - N/A   Clear
9:56 AM 80.1 °F 32.0 °F 17% 30.16 in 10.0 mi West 3.5 mph - N/A   Clear
10:56 AM 86.0 °F 26.1 °F 11% 30.15 in 10.0 mi Calm Calm - N/A   Clear
11:56 AM 87.8 °F 24.8 °F 10% 30.14 in 10.0 mi NNE 5.8 mph - N/A   Partly Cloudy
12:56 PM 90.0 °F 26.1 °F 10% 30.13 in 10.0 mi Variable 4.6 mph - N/A   Clear
1:56 PM 90.0 °F 27.0 °F 10% 30.10 in 10.0 mi NE 3.5 mph - N/A   Clear
2:56 PM 91.0 °F 26.1 °F 10% 30.08 in 10.0 mi NE 6.9 mph - N/A   Clear
3:56 PM 90.0 °F 27.0 °F 10% 30.06 in 10.0 mi Variable 3.5 mph - N/A   Clear
4:56 PM 90.0 °F 26.1 °F 10% 30.05 in 10.0 mi Variable 5.8 mph - N/A   Clear
5:56 PM 90.0 °F 25.0 °F 10% 30.04 in 10.0 mi SSW 5.8 mph - N/A   Clear
6:56 PM 86.0 °F 28.9 °F 13% 30.04 in 10.0 mi SSW 5.8 mph - N/A   Clear
7:56 PM 79.0 °F 25.0 °F 14% 30.04 in 10.0 mi Variable 4.6 mph - N/A   Clear
8:56 PM 77.0 °F 28.0 °F 17% 30.05 in 10.0 mi Calm Calm - N/A   Clear
9:56 PM 70.0 °F 33.1 °F 26% 30.06 in 10.0 mi SW 4.6 mph - N/A   Clear
10:56 PM 69.1 °F 30.9 °F 24% 30.07 in 10.0 mi WSW 6.9 mph - N/A   Clear
11:56 PM 70.0 °F 21.9 °F 16% 30.07 in 10.0 mi SSW 5.8 mph - N/A   Clear